STARLINK-35506, 66324

Orbit data source: Space-Track

STARLINK-35506, 66324 is a payload satellite owned by SpaceX/Seattle (US) in LEO that was launched on Thu, 06 Nov 2025 UTC via an FALCON 9 launch vehicle from the Air Force Eastern Test Range (AFETR). Payload-class satellites include a variety of spacecraft equipped with specific instruments for various scientific and technological missions. These include communications satellites like Starlink; space stations such as the ISS; scientific satellites like the Hubble; Earth observation satellites from companies like Planet Labs, Umbra, and HawkEye 360; GPS; miniature CubeSats for education and research; and military/defense satellites.

Loading next visibility...
Identifier
66324, 2025-253F
Orbit
LEO
Country
Flag of USUS
Related business
Manufacturer
SpaceX/Seattle
Mission
Operational Commercial Communications
Bus & Motor
STARLINK V2MO, Unknown motor
Mass
575 kg wet, ~530 kg dry
Launch date (UTC)
2025-11-06 (7 months ago)
Launch vehicle
FALCON 9
Launch site
Air Force Eastern Test Range (AFETR)
Object type
Payload
Rocket body
Debris
Shape & HBR
Box + 2 Pan, 17.7 m
Radar Cross Section
36.964 m², Large (>1 m²)

Expand to show TLE details & history
Last TLE update: 13 hours ago

TLE from 13 hours ago
0 STARLINK-35506
1 66324U 25253F   26170.59614365  .00015373  00000-0  56685-3 0  9995
2 66324  42.9985 356.6577 0001923 273.2991  86.7641 15.27588263 35835
Epoch: 2026-06-19T14:18Z
TLE epoch observation values (Epoch: 2026-06-19T14:18:26.811Z)
Latitude
0.00001°
Longitude
-125.77685°
Altitude
482.725 km
Speed
7.626 km/s
True Right ascension
23h 46m 37s
True Declination
0° 00' 00"
Sunlit
Object was in daylight at epoch
Visualization orbit readout
Latitude
Unknown
Longitude
Unknown
Altitude
Unknown
Speed
Unknown
Apparent Right ascension
Unknown
Apparent Declination
Unknown
Sunlit
N/A
Visualization observer readout
Local Sidereal Time
14:34:39
Azimuth
Unknown
Elevation
Unknown
Doppler factor
Unknown
Orbital elements
Apogee altitude
486.29 km
Perigee altitude
483.65 km
Semi-major axis
6,863.107 km
Eccentricity
0.00019
Inclination
42.9985°
RAAN
356.6577°
Arg. of periapsis
273.2991°
True anomaly
86.7861°
Mean anomaly
86.7641°
Eccentric anomaly
86.7751°
Mean motion
3.81735 °/min
Orbital period
94.31 mins
BSTAR
0.00056685
Loading maneuver chart data...
Computing Atmospheric mass density...
Loading historical data...
Loading historical data...
Loading historical data...
Loading historical data...
Loading historical data...
Loading historical data...
Loading historical data...

Documentation

Showing up to 5 results
|